SV1AAW Weather Reports


time (UTC)temp
C
wind
direction
speed
KPH
gust
KPH
rain 1hr
cm
rain 24hr
cm
rain mn
cm
humidity
%
barometer
mb
20260507140025 24 218 8.0 14.5 0.00 0.00 0.00 35 1019.1
20260507135020 24 236 8.0 14.5 0.00 0.00 0.00 34 1019.2
20260507134017 24 232 9.7 20.9 0.00 0.00 0.00 35 1019.3
20260507133020 25 221 9.7 20.9 0.00 0.00 0.00 36 1019.4
20260507132037 25 214 8.0 16.1 0.00 0.00 0.00 37 1019.2
20260507131024 25 208 8.0 16.1 0.00 0.00 0.00 35 1019.2
20260507130021 25 236 8.0 16.1 0.00 0.00 0.00 33 1019.2
20260507125017 26 227 8.0 16.1 0.00 0.00 0.00 33 1019.3
20260507124026 26 189 6.4 14.5 0.00 0.00 0.00 31 1019.3
20260507123019 26 185 6.4 12.9 0.00 0.00 0.00 29 1019.3
20260507122017 26 164 6.4 14.5 0.00 0.00 0.00 30 1019.3
20260507121025 25 161 6.4 12.9 0.00 0.00 0.00 34 1019.3
20260507120020 25 157 3.2 11.3 0.00 0.00 0.00 38 1019.4
20260507115045 25 116 4.8 9.7 0.00 0.00 0.00 34 1019.4
20260507114042 25 140 4.8 9.7 0.00 0.00 0.00 35 1019.4
20260507113024 25 171 6.4 12.9 0.00 0.00 0.00 31 1019.4
20260507112019 25 159 8.0 16.1 0.00 0.00 0.00 31 1019.4
20260507111018 25 164 8.0 14.5 0.00 0.00 0.00 32 1019.4
20260507110017 25 170 8.0 14.5 0.00 0.00 0.00 33 1019.5
20260507105023 24 163 6.4 14.5 0.00 0.00 0.00 36 1019.7
20260507104021 23 139 4.8 9.7 0.00 0.00 0.00 42 1019.7
20260507103017 22 131 4.8 14.5 0.00 0.00 0.00 43 1019.6
20260507102022 22 148 8.0 16.1 0.00 0.00 0.00 44 1019.6
20260507101018 22 142 9.7 17.7 0.00 0.00 0.00 45 1019.7
20260507100017 22 140 8.0 17.7 0.00 0.00 0.00 44 1019.8
20260507095023 21 131 8.0 14.5 0.00 0.00 0.00 44 1019.8
20260507094026 21 148 9.7 20.9 0.00 0.00 0.00 44 1019.8
20260507093021 21 142 8.0 16.1 0.00 0.00 0.00 45 1019.9
20260507092019 21 144 8.0 16.1 0.00 0.00 0.00 45 1019.8
20260507091017 21 147 9.7 24.1 0.00 0.00 0.00 46 1019.8
20260507090018 21 159 8.0 17.7 0.00 0.00 0.00 46 1020.0
20260507085124 20 152 8.0 20.9 0.00 0.00 0.00 47 1020.1
20260507084019 20 153 9.7 17.7 0.00 0.00 0.00 49 1020.1
20260507083024 20 147 9.7 17.7 0.00 0.00 0.00 50 1020.1
20260507082044 20 152 11.3 24.1 0.00 0.00 0.00 48 1020.1
20260507081022 20 148 9.7 17.7 0.00 0.00 0.00 49 1020.0
20260507080021 20 146 9.7 17.7 0.00 0.00 0.00 49 1020.0
20260507075018 20 144 11.3 20.9 0.00 0.00 0.00 51 1020.0
20260507074016 20 145 8.0 14.5 0.00 0.00 0.00 50 1020.1
20260507073021 20 144 8.0 16.1 0.00 0.00 0.00 50 1020.1
20260507072018 20 139 6.4 17.7 0.00 0.00 0.00 47 1020.1
20260507071018 20 132 4.8 14.5 0.00 0.00 0.00 50 1020.2
20260507070016 20 137 4.8 16.1 0.00 0.00 0.00 51 1020.1
20260507065036 20 150 6.4 16.1 0.00 0.00 0.00 51 1020.1
20260507064024 20 162 3.2 9.7 0.00 0.00 0.00 50 1020.1
20260507063023 19 165 1.6 3.2 0.00 0.00 0.00 55 1020.2
20260507062019 18 136 1.6 6.4 0.00 0.00 0.00 61 1020.3
20260507061025 17 147 1.6 3.2 0.00 0.00 0.00 64 1020.2
20260507060020 17 276 1.6 3.2 0.00 0.00 0.00 70 1020.2
20260507055016 17 20 1.6 4.8 0.00 0.00 0.00 71 1020.2
20260507054022 17 21 3.2 3.2 0.00 0.00 0.00 69 1020.0
20260507053058 17 0.0 0.0 0.00 0.00 0.00 70 1020.0
20260507052023 16 0.0 0.0 0.00 0.00 0.00 71 1019.9
20260507051021 16 0.0 0.0 0.00 0.00 0.00 70 1019.9
20260507050020 17 0.0 0.0 0.00 0.00 0.00 70 1019.7
20260507045059 16 0.0 0.0 0.00 0.00 0.00 72 1019.7
20260507044020 16 58 1.6 1.6 0.00 0.00 0.00 73 1019.5
20260507043017 15 58 0.0 3.2 0.00 0.00 0.00 74 1019.5
20260507042017 15 58 0.0 1.6 0.00 0.00 0.00 76 1019.5
20260507041025 14 63 1.6 1.6 0.00 0.00 0.00 77 1019.3
20260507040041 14 109 0.0 3.2 0.00 0.00 0.00 77 1019.1
20260507035019 13 150 0.0 1.6 0.00 0.00 0.00 76 1018.9
20260507034025 13 0.0 0.0 0.00 0.00 0.00 75 1018.8
20260507033026 13 0.0 0.0 0.00 0.00 0.00 74 1018.7
20260507032024 14 0.0 0.0 0.00 0.00 0.00 73 1018.6
20260507031022 14 0.0 0.0 0.00 0.00 0.00 72 1018.4
20260507030101 14 0.0 0.0 0.00 0.00 0.00 72 1018.3
20260507025018 14 0.0 0.0 0.00 0.00 0.00 72 1018.3
20260507024024 14 153 0.0 1.6 0.00 0.00 0.00 72 1018.4
20260507023104 14 151 0.0 1.6 0.00 0.00 0.00 71 1018.2
20260507022023 14 0.0 0.0 0.00 0.00 0.00 71 1018.2
20260507021017 15 136 1.6 1.6 0.00 0.00 0.00 71 1018.2
20260507020025 15 122 0.0 1.6 0.00 0.00 0.00 71 1018.2
20260507015021 15 65 0.0 1.6 0.00 0.00 0.00 71 1017.9
20260507014018 15 61 0.0 1.6 0.00 0.00 0.00 70 1018.0
20260507013025 15 61 1.6 1.6 0.00 0.00 0.00 70 1017.9
20260507012022 15 60 0.0 3.2 0.00 0.00 0.00 69 1017.9
20260507011018 15 60 0.0 1.6 0.00 0.00 0.00 68 1017.9
20260507010018 15 0.0 0.0 0.00 0.00 0.00 68 1017.9
20260507005106 15 60 0.0 1.6 0.00 0.00 0.00 66 1018.1
20260507004026 15 0.0 0.0 0.00 0.00 0.00 66 1018.0
20260507003023 15 60 1.6 1.6 0.00 0.00 0.00 66 1018.2
20260507002019 15 61 1.6 1.6 0.00 0.00 0.00 65 1018.1
20260507001024 15 66 1.6 3.2 0.00 0.00 0.00 64 1018.1
20260507000020 15 93 1.6 3.2 0.00 0.00 0.00 62 1018.1
20260506235101 15 0.0 0.0 0.00 0.00 0.00 61 1018.1
20260506234024 15 149 0.0 3.2 0.00 0.00 0.00 62 1018.1
20260506233021 15 0.0 0.0 0.00 0.00 0.00 61 1018.1
20260506232018 15 149 0.0 1.6 0.00 0.00 0.00 61 1018.2
20260506231016 15 149 0.0 1.6 0.00 0.00 0.00 62 1018.3
20260506230025 15 149 1.6 3.2 0.00 0.00 0.00 64 1018.2
20260506224024 15 153 0.0 1.6 0.00 0.00 0.00 63 1018.5
20260506223025 16 0.0 0.0 0.00 0.00 0.00 61 1018.6
20260506222023 16 0.0 0.0 0.00 0.00 0.00 60 1018.6
20260506221024 16 153 1.6 1.6 0.00 0.00 0.00 59 1018.6
20260506220021 15 0.0 0.0 0.00 0.00 0.00 59 1018.7
20260506215020 16 0.0 0.0 0.00 0.00 0.00 57 1018.7
20260506214020 16 0.0 0.0 0.00 0.00 0.00 54 1018.7
20260506213037 16 0.0 0.0 0.00 0.00 0.00 53 1018.6
20260506212016 16 153 1.6 3.2 0.00 0.00 0.00 52 1018.6
20260506211043 16 163 1.6 3.2 0.00 0.00 0.00 54 1018.7
20260506210018 16 204 1.6 3.2 0.00 0.00 0.00 56 1018.6
20260506205022 16 0.0 0.0 0.00 0.00 0.00 56 1018.6
20260506204039 16 0.0 0.0 0.00 0.00 0.00 54 1018.5
20260506203025 16 216 1.6 3.2 0.00 0.00 0.00 54 1018.5
20260506202019 17 220 0.0 1.6 0.00 0.00 0.00 54 1018.5
20260506201018 17 221 1.6 1.6 0.00 0.00 0.00 54 1018.4
20260506200021 17 224 0.0 1.6 0.00 0.00 0.00 56 1018.5
20260506195020 17 0.0 0.0 0.00 0.00 0.00 60 1018.3
20260506194018 17 0.0 0.0 0.00 0.00 0.00 58 1018.3
20260506193016 17 221 0.0 1.6 0.00 0.00 0.00 58 1018.1
20260506192024 17 196 0.0 1.6 0.00 0.00 0.00 57 1018.0
20260506191019 17 195 0.0 1.6 0.00 0.00 0.00 55 1017.9
20260506190019 18 200 1.6 3.2 0.00 0.00 0.00 54 1017.8
20260506185041 18 0.0 0.0 0.00 0.00 0.00 55 1017.6
20260506184017 18 0.0 0.0 0.00 0.00 0.00 54 1017.6
20260506183104 18 0.0 0.0 0.00 0.00 0.00 53 1017.3
20260506182020 18 0.0 0.0 0.00 0.00 0.00 50 1017.2
20260506181017 18 0.0 0.0 0.00 0.00 0.00 49 1017.2
20260506180025 19 0.0 0.0 0.00 0.00 0.00 50 1017.1
20260506175025 19 0.0 0.0 0.00 0.00 0.00 49 1017.0
20260506174024 20 0.0 0.0 0.00 0.00 0.00 49 1016.9
20260506173020 20 0.0 0.0 0.00 0.00 0.00 48 1016.9
20260506172039 20 0.0 0.0 0.00 0.00 0.00 47 1016.9
20260506171017 20 324 0.0 1.6 0.00 0.00 0.00 46 1016.8
20260506170022 21 324 0.0 1.6 0.00 0.00 0.00 45 1016.7
20260506165016 21 324 1.6 1.6 0.00 0.00 0.00 43 1016.6
20260506164022 21 327 1.6 3.2 0.00 0.00 0.00 44 1016.6
20260506163019 21 353 1.6 3.2 0.00 0.00 0.00 45 1016.6
20260506162021 22 11 1.6 4.8 0.00 0.00 0.00 44 1016.6
20260506161018 22 11 3.2 4.8 0.00 0.00 0.00 40 1016.5
20260506160024 22 15 3.2 6.4 0.00 0.00 0.00 40 1016.5
20260506155043 22 9 1.6 4.8 0.00 0.00 0.00 38 1016.5
20260506154020 23 34 1.6 4.8 0.00 0.00 0.00 39 1016.5
20260506153018 23 93 1.6 3.2 0.00 0.00 0.00 36 1016.6
20260506152023 23 126 3.2 6.4 0.00 0.00 0.00 36 1016.6
20260506151018 22 329 1.6 3.2 0.00 0.00 0.00 39 1016.6
20260506150017 22 11 3.2 4.8 0.00 0.00 0.00 39 1016.6
20260506145021 22 1 1.6 4.8 0.00 0.00 0.00 39 1016.7
20260506144017 23 16 1.6 6.4 0.00 0.00 0.00 37 1016.7
20260506143016 23 36 3.2 6.4 0.00 0.00 0.00 35 1016.5
20260506142023 23 117 3.2 6.4 0.00 0.00 0.00 34 1016.5
20260506141019 23 58 3.2 4.8 0.00 0.00 0.00 35 1016.6